Regional Weather Roundup
Issued by NWS

Home | Current Version | Previous Version | Graphics & Text | Print | Product List | Glossary On
Versions: 1 2 3 4 5 6 7 8 9 10 11 12 13 14 15 16 17 18 19 20 21 22 23 24 25 26 27 28 29 30 31 32 33 34 35 36 37 38 39 40 41 42 43 44 45 46 47 48 49 50
000
ASUS43 KIND 282259
RWRIN

WEATHER ROUNDUP FOR INDIANA
NATIONAL WEATHER SERVICE INDIANAPOLIS IN
700 PM EDT THU JUL 28 2016

NOTE: "FAIR" INDICATES FEW OR NO CLOUDS BELOW 12,000 FEET WITH NO
SIGNIFICANT WEATHER AND/OR OBSTRUCTIONS TO VISIBILITY.

* - STATION DOES NOT REPORT WEATHER SUCH AS PRECIPITATION OR FOG.

+ - STATION NOT QUALITY CONTROLLED BY THE NATIONAL WEATHER SERVICE.
    USE DATA WITH CAUTION...ESPECIALLY DEWPOINT AND RELATIVE
    HUMIDITY OBSERVATIONS.

INZ001>003-010>013-019-020-290000-
NORTHWEST INDIANA

CITY           SKY/WX    TMP DP  RH WIND       PRES   REMARKS
GARY /AIRPORT/ LGT RAIN  75  73  94 N5        29.88F
KNOX *+        PTSUNNY   79  61  53 NE14G20   29.89S
MONTICELLO +   SUNNY     82  67  60 CALM      29.87F
RENSSELAER +   CLOUDY    81  72  74 CALM      29.88F

$$

LMZ046-743>745-290000-
SOUTHERN LAKE MICHIGAN

STATION/POSITION TIME  TEMP    WIND        PRES    WAVE
                       AIR SEA DIR/SP/G            HT
                 (UTC) (F)     (DEG/KT/KT) (MB)    (FT)
BURNS HARBOR     2200                      1012.9R
MICHIGAN CITY    2200   77     360/ 12/ 13   N/A
5NW MICH CITY    2200   77 78  360/  8/ 12   N/A     1

$$

INZ004-005-014>016-021>024-290000-
NORTH CENTRAL INDIANA

CITY           SKY/WX    TMP DP  RH WIND       PRES   REMARKS
ELKHART        LGT RAIN  68  66  94 W7        29.94R
GOSHEN         PTSUNNY   83  65  54 NW17G23   29.91R
SOUTH BEND     TSTM      70  68  93 N10       29.93F

$$

INZ006>009-017-018-025>027-290000-
NORTHEAST INDIANA

CITY           SKY/WX    TMP DP  RH WIND       PRES   REMARKS
ANGOLA *+      SUNNY     82  77  83 VRB6      29.90S
FORT WAYNE     LGT RAIN  82  67  60 N7        29.88R

$$

INZ028-029-035-036-043>045-051>053-290000-
WEST CENTRAL INDIANA

CITY           SKY/WX    TMP DP  RH WIND       PRES   REMARKS
CRAWFORDSVL +  MOSUNNY   79  71  76 CALM      29.88S
LAFAYETTE      MOSUNNY   82  71  69 NW5       29.86F
TERRE HAUTE    MOSUNNY   80  72  76 SE6       29.88R

$$

INZ030>032-037>040-046>048-054>057-064-065-290000-
CENTRAL INDIANA

CITY           SKY/WX    TMP DP  RH WIND       PRES   REMARKS
COLUMBUS       PTSUNNY   81  75  83 CALM      29.89R
INDIANAPOLIS   PTSUNNY   84  66  54 NW12      29.88R
-EAGLE CREEK   SUNNY     86  66  51 N8        29.87R
KOKOMO *+      SUNNY     86  64  48 NW7       29.88S
SHELBYVILLE    CLOUDY    80  69  69 SE3       29.88R

$$

INZ033-034-041-042-049-050-058-059-290000-
EAST CENTRAL INDIANA

CITY           SKY/WX    TMP DP  RH WIND       PRES   REMARKS
MUNCIE         MOSUNNY   86  67  52 NW5       29.88R

$$

INZ060-061-067>069-081>083-085>088-290000-
SOUTHWEST INDIANA

CITY           SKY/WX    TMP DP  RH WIND       PRES   REMARKS
EVANSVILLE     CLOUDY    84  73  69 W5        29.88R
HUNTINGBURG *+ MOSUNNY   82  73  74 SW6       29.89R

$$

INZ062-063-066-070>080-084-089>092-290000-
SOUTH CENTRAL AND SOUTHEAST INDIANA

CITY           SKY/WX    TMP DP  RH WIND       PRES   REMARKS
BLOOMINGTON    CLOUDY    74  68  81 CALM      29.90S
MADISON *+     MOSUNNY   81  72  74 W3        29.90R
SEYMOUR +      CLOUDY    77  68  73 W7        29.90R THUNDER

$$





USA.gov is the U.S. government's official web portal to all federal, state and local government web resources and services.